Logan, UT

12:21 AM MST on November 17, 2019 (GMT -0700)
Logan-Cache

Weather History for KLGU - August, 2019

Change the Weather History Date:

Saturday, August 17, 2019

  Actual Average Record
Temperature  
Mean Temperature 67 °F -  
Max Temperature 87 °F 85 °F 96 °F (1966)
Min Temperature 48 °F 52 °F 36 °F (1960)
Cooling Degree Days 2    
Growing Degree Days 17 (Base 50)    
Moisture  
Dew Point 39 °F    
Average Humidity 41    
Maximum Humidity 80    
Minimum Humidity 14    
Precipitation  
Precipitation 0.00 in - - ()
Sea Level Pressure  
Sea Level Pressure 29.79 in    
Wind  
Wind Speed 3 mph (North)    
Max Wind Speed 13 mph    
Max Gust Speed 21 mph    
Visibility 10 miles    
Events      
Averages and records for this station are not official NWS values.
T = Trace of Precipitation, MM = Missing Value Source: NWS Daily Summary

Daily Weather History Graph

Daily Weather History Graph

Search for Another Location

Airport or City:

Astronomy

Aug. 17, 2019 Rise Set
Actual Time 6:37 AM MDT 8:24 PM MDT
Civil Twilight 6:07 AM MDT 8:54 PM MDT
Nautical Twilight 5:31 AM MDT 9:30 PM MDT
Astronomical Twilight 4:52 AM MDT 10:09 PM MDT
Moon 9:52 PM MDT 8:30 AM MDT
Length of Visible Light 14h 46m
Length of Day
13h 47m
Waning Gibbous, 96% of the Moon is Illuminated
Aug 17
Waning Gibbous
Aug 23
Last Quarter
Aug 30
New
Sep 5
First Quarter
Sep 13
Full

Hourly Weather History & Observations

Time (MDT) Temp. Dew Point Humidity Pressure Visibility Wind Dir Wind Speed Gust Speed Precip Events Conditions
12:51 AM 57.9 °F 45.0 °F 62% 29.81 in 10.0 mi Calm Calm - N/A   Clear
1:51 AM 57.9 °F 45.0 °F 62% 29.80 in 10.0 mi East 3.5 mph - N/A   Clear
2:51 AM 57.0 °F 44.1 °F 62% 29.79 in 10.0 mi SSW 3.5 mph - N/A   Clear
3:51 AM 54.0 °F 44.1 °F 69% 29.79 in 10.0 mi Calm Calm - N/A   Clear
4:51 AM 54.0 °F 43.0 °F 66% 29.79 in 10.0 mi Calm Calm - N/A   Clear
5:51 AM 48.9 °F 43.0 °F 80% 29.80 in 10.0 mi Calm Calm - N/A   Clear
6:51 AM 53.1 °F 43.0 °F 69% 29.81 in 10.0 mi Calm Calm - N/A   Clear
7:51 AM 54.0 °F 44.1 °F 69% 29.82 in 10.0 mi Calm Calm - N/A   Clear
8:51 AM 60.1 °F 45.0 °F 57% 29.86 in 10.0 mi NNE 4.6 mph - N/A   Clear
9:51 AM 66.9 °F 41.0 °F 39% 29.85 in 10.0 mi Calm Calm - N/A   Clear
10:51 AM 75.0 °F 37.9 °F 26% 29.82 in 10.0 mi North 3.5 mph - N/A   Clear
11:51 AM 80.1 °F 30.0 °F 16% 29.81 in 10.0 mi Variable 5.8 mph - N/A   Clear
12:51 PM 80.1 °F 30.0 °F 16% 29.81 in 10.0 mi Calm Calm - N/A   Clear
1:51 PM 82.0 °F 32.0 °F 16% 29.78 in 10.0 mi North - - N/A   Clear
2:51 PM 84.0 °F 33.1 °F 16% 29.76 in 10.0 mi Variable 3.5 mph - N/A   Clear
3:51 PM 86.0 °F 30.9 °F 14% 29.75 in 10.0 mi WSW 12.7 mph 20.7 mph N/A   Clear
4:51 PM 86.0 °F 32.0 °F 14% 29.73 in 10.0 mi SSW 9.2 mph - N/A   Clear
5:51 PM 84.9 °F 33.1 °F 16% 29.73 in 10.0 mi South 12.7 mph - N/A   Clear
6:51 PM 84.9 °F 34.0 °F 16% 29.72 in 10.0 mi SSW 11.5 mph - N/A   Clear
7:51 PM 80.1 °F 39.0 °F 23% 29.73 in 10.0 mi SW 5.8 mph - N/A   Clear
8:51 PM 68.0 °F 45.0 °F 43% 29.76 in 10.0 mi NNE 4.6 mph - N/A   Clear
9:51 PM 70.0 °F 39.9 °F 33% 29.76 in 10.0 mi SE 3.5 mph - N/A   Clear
10:51 PM 64.9 °F 43.0 °F 45% 29.77 in 10.0 mi Calm Calm - N/A   Clear
11:51 PM 59.0 °F 43.0 °F 55% 29.79 in 10.0 mi Calm Calm - N/A   Clear